Regional Weather Roundup
Issued by NWS Jackson, KY

Home | Current Version | Previous Version | Text Only | Print | Product List | Glossary On
Versions: 1 2 3 4 5 6 7 8 9 10 11 12 13 14 15 16 17 18 19 20 21 22 23 24 25 26 27 28 29 30 31 32 33 34 35 36 37 38 39 40 41 42 43 44 45 46 47 48 49 50
000
ASUS43 KJKL 281410
RWRJKL

EAST KENTUCKY HOURLY WEATHER ROUNDUP
NATIONAL WEATHER SERVICE JACKSON KY
1000 AM EDT WED JUN 28 2017

NOTE: "FAIR" INDICATES FEW OR NO CLOUDS BELOW 12,000 FEET WITH
NO SIGNIFICANT WEATHER AND/OR OBSTRUCTIONS TO VISIBILITY.

* THESE REPORTS ARE NOT UNDER NWS QUALITY CONTROL AND MAY NOT
  REPORT WEATHER SUCH AS PRECIPITATION AND FOG.

KYZ079-080-083-085-087-088-110-112-115-119-120-281500
...EASTERN KENTUCKY...

CITY           SKY/WX    TMP DP  RH WIND       PRES   REMARKS
JACKSON        SUNNY     68  56  65 VRB3      30.23R
LONDON         SUNNY     67  54  63 CALM      30.21F
SOMERSET*      SUNNY     64  55  72 S3        30.21F
MONTICELLO*    SUNNY     71  56  58 SE8       30.21S
WILLIAMSBURG*  SUNNY     68  55  64 SE8       30.21F
MIDDLESBORO*   SUNNY     62  54  76 CALM      30.24F
HARLAN APT*    SUNNY     63  52  67 CALM      30.25S
PIKE CO APT*     N/A     64  54  69 SE5       30.23F
BIG SANDY APT* SUNNY     68  54  60 SE5       30.23F
MOREHEAD APT*  SUNNY     68  54  60 S6        30.22F
ASHLAND*       SUNNY     66  61  82 CALM      30.19F
$$

KYZ035-036-041-042-044-050-067-078-099-281500
...CENTRAL KENTUCKY...

CITY           SKY/WX    TMP DP  RH WIND       PRES   REMARKS
MT STERLING*   SUNNY     70  54  56 S8        30.21F
FLEMING/MASON* SUNNY     69  54  58 S10       30.20F
DANVILLE*      SUNNY     72  55  56 S3        30.21R
LEXINGTON      SUNNY     71  52  50 S7        30.19F
FRANKFORT      SUNNY     71  52  50 S12       30.17S
LOUISVILLE     CLOUDY    72  55  55 SE10      30.15S
LEBANON*         N/A     72  54  53 SE8       30.18R
GLASGOW*       SUNNY     73  55  53 SE3       30.16S
BOWLING GREEN  CLOUDY    73  60  63 CALM      30.15S
$$

KYZ091>093-OHZ055-061-077-WVZ005-015-034-035-042-281500
...SOUTHERN OHIO/WEST VIRGINIA...

CITY           SKY/WX    TMP DP  RH WIND       PRES   REMARKS
COVINGTON      PTSUNNY   70  55  59 S9        30.17S
COLUMBUS       MOSUNNY   68  54  60 S5        30.17F
DAYTON         PTSUNNY   68  51  54 S13       30.18R
WILMINGTON     SUNNY     69  55  60 S9        30.18S
HUNTINGTON     SUNNY     67  56  67 SW6       30.21S
CHARLESTON     MOSUNNY   67  54  63 VRB3      30.23R
PINEVILLE*     SUNNY     65  55  67 MISG      30.30S
BECKLEY        SUNNY     65  47  52 CALM      30.27R
BLUEFIELD      SUNNY     62  45  53 W6        30.29R
LOGAN CO APT*    N/A     66  55  68 CALM      30.24S
$$

VAZ002-007-008-TNZ017-027-036-066-071-281500
...SOUTHWEST VIRGINIA/EAST TENNESSEE...

CITY           SKY/WX    TMP DP  RH WIND       PRES   REMARKS
WISE*          SUNNY     68  46  45 CALM      30.29R
JONESVILLE*      N/A     68  52  56 E3        30.26S
ABINGDON*      SUNNY     67  54  62 E5        30.27S
BRISTOL        MOSUNNY   67  55  65 E5        30.25R
MORRISTOWN*    SUNNY     68  54  60 VRB5      30.21S
SEVIERVILLE*   SUNNY     66  54  63 CALM      30.21S
KNOXVILLE      MOSUNNY   68  54  60 CALM      30.20R
LAFOLLETTE*    SUNNY     68  52  56 CALM      30.25S
OAK RIDGE      SUNNY     70  54  56 CALM      30.22S
CROSSVILLE     SUNNY     67  51  56 SE5       30.22S
NASHVILLE      MOSUNNY   74  60  61 S6        30.15F
$$

...KEY TO REMARKS...
VSB - VISIBILITY IN MILES
WCI - WIND CHILL INDEX
HX  - HEAT INDEX

$$



USA.gov is the U.S. government's official web portal to all federal, state and local government web resources and services.